Location: Pine Mountain Observatory
(43.7910°N, 120.9377°W)
Time: 23:25:08
(UTC-07:00)

APEX - Visible Passes

Search period start: 23 July 2014 00:00
Search period end: 02 August 2014 00:00
Orbit: 338 x 1422 km, 69.9° (Epoch: 23 July)

Date Brightness Start Highest point End Pass type
(mag) Time Alt. Az. Time Alt. Az. Time Alt. Az.
23 Jul 6.8 00:42:55 10° WNW 00:44:46 11° W 00:46:30 10° WSW visible
23 Jul 5.8 21:05:08 10° NNW 21:12:28 35° NE 21:18:26 10° ESE visible
23 Jul 5.1 22:50:30 10° NNW 22:58:10 58° WSW 23:01:36 27° S visible
24 Jul 5.6 21:01:46 10° NNW 21:09:14 39° NE 21:15:13 10° ESE visible
24 Jul 5.3 22:47:16 10° NW 22:54:40 50° WSW 22:58:19 23° S visible
25 Jul 5.4 20:58:24 10° NNW 21:05:58 43° NE 21:11:57 10° ESE visible
25 Jul 5.5 22:44:02 10° NW 22:51:08 43° WSW 22:55:03 19° SSW visible
26 Jul 5.3 20:55:02 10° NNW 21:02:41 48° NE 21:08:38 10° SE visible
26 Jul 5.7 22:40:51 10° NW 22:47:34 36° WSW 22:51:49 16° SSW visible
27 Jul 6.0 22:37:41 10° NW 22:43:59 31° W 22:48:37 12° SSW visible
28 Jul 6.2 22:34:33 10° NW 22:40:21 26° W 22:45:04 10° SSW visible
29 Jul 6.4 22:31:29 10° NW 22:36:42 22° W 22:41:02 10° SW visible
30 Jul 6.5 22:28:30 10° NW 22:33:01 19° W 22:36:52 10° SW visible
31 Jul 6.7 22:25:39 10° WNW 22:29:19 15° W 22:32:32 10° SW visible
01 Aug 6.9 22:23:05 10° WNW 22:25:35 12° W 22:27:53 10° WSW visible
